"startDT [UTC]","vpos","CH4 [ppm]","stdev(CH4) [ppm]","CO2 [ppm]","stdev(CO2) [ppm]","H2O_reported [%]","stdev(H2O_reported)","CavityPressure [torr]","CavityTemp [C]","OutletValve","CH4_dry [ppm]","CO2_dry [ppm]","DasTemp [C]","EtalonTemp [C]","WarmBoxTemp [C]","MPVPosition","T_ECpre [C]","T_EC1 [C]","T_EC2 [C]","p_inlet [hPa]","p_in [hPa]","p_out [hPa]","T_inlet [C]","RH_inlet [%]","dwpt_inlet [C]","T_vent [C]","RH_vent [%]","dwpt_vent [C]","flow_vent [l min-1]","flow_inlet [l min-1]","dwpt_sample [C]","T_room [C]"
2015-08-22 00:00:00,0.0,1.88933,0.00043,384.524,0.134,0.8767,0.0079,140.001,45.000,31240.49483,1.90610,388.697,35.383,45.068,45.000,0.00,0.10,-272.73,-272.80,-16,503,-945,25.6,20.7,1.5,25.5,21.3,1.7,5.73,1.90,4.9,29.5
2015-08-22 00:01:00,0.0,1.88929,0.00038,384.535,0.141,0.8772,0.0059,140.001,45.000,31242.72031,1.90606,388.704,35.386,45.068,45.000,0.00,0.10,-272.74,-272.80,-16,503,-945,25.6,20.7,1.4,25.5,21.3,1.8,5.73,1.93,4.9,29.5
2015-08-22 00:02:00,0.0,1.88912,0.00035,384.425,0.114,0.8758,0.0046,139.997,45.000,31241.91587,1.90587,388.590,35.390,45.068,45.000,0.00,0.10,-272.73,-272.80,-16,503,-945,25.6,20.7,1.4,25.5,21.3,1.7,5.73,1.97,4.9,29.5
2015-08-22 00:03:00,0.0,1.88946,0.00024,384.476,0.192,0.8747,0.0082,139.999,45.000,31240.70969,1.90617,388.636,35.427,45.068,45.000,0.00,0.10,-272.74,-272.79,-16,503,-945,25.6,20.7,1.4,25.5,21.2,1.7,5.73,2.00,4.9,29.4
2015-08-22 00:04:00,0.0,1.88897,0.00027,384.008,0.187,0.8973,0.0055,139.997,45.000,31240.53091,1.90613,388.272,35.427,45.067,45.000,0.00,0.10,-272.74,-272.80,-16,503,-945,25.6,21.2,1.8,25.5,21.7,2.0,5.73,2.01,4.9,29.5
2015-08-22 00:05:00,0.0,1.88919,0.00024,384.485,0.164,0.8765,0.0062,140.001,45.000,31243.98745,1.90596,388.649,35.430,45.067,45.000,0.00,0.10,-272.73,-272.80,-16,503,-945,25.6,20.7,1.4,25.5,21.4,1.8,5.73,2.01,4.9,29.5
2015-08-22 00:06:00,0.0,1.88871,0.00040,384.240,0.264,0.8918,0.0093,139.999,45.000,31243.09935,1.90579,388.480,35.415,45.067,45.000,0.00,0.10,-272.74,-272.79,-16,503,-945,25.6,21.1,1.7,25.5,21.5,1.9,5.73,1.99,4.9,29.5
2015-08-22 00:07:00,0.0,1.88899,0.00039,384.468,0.074,0.8822,0.0045,139.998,45.000,31242.26827,1.90583,388.665,35.418,45.067,45.000,0.00,0.10,-272.73,-272.80,-16,503,-945,25.6,20.8,1.5,25.5,21.5,1.9,5.73,1.95,4.9,29.4
2015-08-22 00:08:00,0.0,1.88903,0.00027,384.489,0.126,0.8799,0.0049,139.999,45.000,31241.94890,1.90586,388.671,35.435,45.067,45.000,0.00,0.10,-272.73,-272.79,-16,503,-945,25.6,20.7,1.5,25.5,21.4,1.8,5.73,1.92,4.9,29.5
2015-08-22 00:09:00,0.0,1.88871,0.00035,384.371,0.175,0.8843,0.0089,139.998,45.000,31241.94082,1.90564,388.579,35.438,45.067,45.000,0.00,0.10,-272.74,-272.79,-16,503,-945,25.6,20.9,1.6,25.5,21.4,1.8,5.73,1.88,4.9,29.5
2015-08-22 00:10:00,0.0,1.88838,0.00042,384.109,0.335,0.9035,0.0124,139.999,45.000,31240.78499,1.90563,388.415,35.467,45.067,45.000,0.00,0.10,-272.74,-272.80,-15,503,-945,25.6,21.4,1.9,25.5,21.7,2.0,5.73,1.87,4.9,29.5
2015-08-22 00:11:00,0.0,1.88879,0.00060,384.139,0.346,0.8995,0.0171,140.000,45.000,31239.59155,1.90601,388.402,35.494,45.067,45.000,0.00,0.10,-272.73,-272.80,-16,503,-945,25.6,21.1,1.7,25.5,22.0,2.2,5.73,1.89,4.9,29.5
2015-08-22 00:12:00,0.0,1.88920,0.00050,384.513,0.156,0.8794,0.0087,139.999,45.000,31238.02437,1.90598,388.692,35.483,45.067,45.000,0.00,0.10,-272.72,-272.79,-16,503,-945,25.6,20.7,1.5,25.5,21.4,1.8,5.73,1.90,4.9,29.5
2015-08-22 00:13:00,0.0,1.88965,0.00049,384.585,0.120,0.8721,0.0076,139.999,45.000,31239.27825,1.90631,388.735,35.472,45.067,45.000,0.00,0.10,-272.74,-272.80,-16,503,-945,25.7,20.5,1.4,25.5,21.2,1.7,5.73,1.94,4.9,29.5
2015-08-22 00:14:00,0.0,1.88981,0.00037,384.641,0.114,0.8672,0.0051,140.001,45.000,31240.96196,1.90642,388.767,35.462,45.067,45.000,0.00,0.10,-272.74,-272.80,-16,503,-945,25.6,20.4,1.3,25.5,21.0,1.6,5.73,1.97,4.9,29.5
2015-08-22 00:15:00,0.0,1.88938,0.00040,384.476,0.143,0.8774,0.0077,139.999,45.000,31240.87426,1.90617,388.648,35.448,45.067,45.000,0.00,0.10,-272.74,-272.80,-16,503,-945,25.7,20.7,1.5,25.5,21.2,1.7,5.73,2.00,4.9,29.5
2015-08-22 00:16:00,0.0,1.88918,0.00042,384.383,0.135,0.8821,0.0056,140.001,45.000,31241.70443,1.90600,388.581,35.453,45.067,45.000,0.00,0.10,-272.76,-272.78,-16,503,-945,25.7,20.8,1.6,25.5,21.3,1.8,5.73,2.02,4.9,29.5
2015-08-22 00:17:00,0.0,1.88915,0.00035,384.233,0.197,0.8913,0.0111,140.002,45.000,31242.01471,1.90621,388.466,35.438,45.067,45.000,0.00,0.10,-272.75,-272.81,-16,503,-945,25.6,21.0,1.7,25.5,21.6,1.9,5.73,2.01,5.0,29.5
2015-08-22 00:18:00,0.0,1.88954,0.00043,384.425,0.148,0.8801,0.0081,140.001,45.000,31241.64075,1.90638,388.610,35.439,45.068,45.000,0.00,0.10,-272.74,-272.80,-16,503,-945,25.6,20.7,1.5,25.5,21.4,1.8,5.73,1.98,4.9,29.5
2015-08-22 00:19:00,0.0,1.88975,0.00031,384.408,0.246,0.8809,0.0125,140.001,45.000,31241.30232,1.90659,388.600,35.446,45.068,45.000,0.00,0.10,-272.71,-272.78,-16,503,-945,25.6,20.8,1.5,25.5,21.3,1.7,5.73,1.95,4.9,29.5
2015-08-22 00:20:00,0.0,1.88944,0.00051,384.546,0.184,0.8747,0.0108,140.001,45.000,31241.99502,1.90616,388.702,35.465,45.068,45.000,0.00,0.10,-272.72,-272.80,-16,503,-945,25.6,20.6,1.4,25.5,21.3,1.7,5.73,1.91,5.0,29.4
2015-08-22 00:21:00,0.0,1.88957,0.00037,384.536,0.181,0.8733,0.0081,139.999,45.000,31241.65001,1.90627,388.691,35.485,45.067,45.000,0.00,0.10,-272.71,-272.80,-16,503,-945,25.7,20.6,1.4,25.5,21.1,1.6,5.73,1.89,4.9,29.5
2015-08-22 00:22:00,0.0,1.88993,0.00044,384.508,0.164,0.8723,0.0094,139.999,45.000,31240.00004,1.90659,388.653,35.497,45.067,45.000,0.00,0.10,-272.75,-272.77,-16,503,-945,25.6,20.5,1.3,25.5,21.2,1.7,5.73,1.87,5.0,29.5
2015-08-22 00:23:00,0.0,1.88946,0.00046,384.417,0.086,0.8818,0.0083,140.000,45.000,31242.46912,1.90633,388.608,35.500,45.067,45.000,0.00,0.10,-272.75,-272.83,-16,503,-945,25.6,20.8,1.5,25.5,21.3,1.7,5.73,1.88,5.0,29.5
2015-08-22 00:24:00,0.0,1.88950,0.00046,384.391,0.136,0.8837,0.0098,139.999,45.000,31241.64197,1.90641,388.595,35.501,45.067,45.000,0.00,0.10,-272.75,-272.80,-16,504,-945,25.6,20.8,1.6,25.5,21.5,1.8,5.73,1.91,4.9,29.4
2015-08-22 00:25:00,0.0,1.88962,0.00044,384.436,0.132,0.8742,0.0066,139.998,45.000,31241.33504,1.90632,388.595,35.502,45.067,45.000,0.00,0.10,-272.75,-272.79,-16,503,-945,25.6,20.6,1.4,25.5,21.2,1.7,5.73,1.95,5.0,29.4
2015-08-22 00:26:00,0.0,1.88953,0.00050,384.274,0.276,0.8840,0.0137,140.001,45.000,31243.92158,1.90645,388.474,35.502,45.067,45.000,0.00,0.10,-272.71,-272.80,-16,504,-945,25.7,20.8,1.6,25.5,21.4,1.8,5.73,1.98,5.0,29.5
2015-08-22 00:27:00,0.0,1.88966,0.00033,384.097,0.235,0.8978,0.0099,140.000,45.000,31241.20547,1.90680,388.363,35.505,45.067,45.000,0.00,0.10,-272.75,-272.81,-16,503,-945,25.7,21.1,1.8,25.5,21.6,2.0,5.73,2.00,4.9,29.5
2015-08-22 00:28:00,0.0,1.88995,0.00047,384.579,0.099,0.8739,0.0058,140.001,45.000,31241.91105,1.90667,388.733,35.503,45.067,45.000,0.00,0.10,-272.74,-272.83,-16,503,-945,25.7,20.6,1.4,25.5,21.3,1.8,5.73,2.02,5.0,29.5
2015-08-22 00:29:00,0.0,1.88994,0.00036,384.476,0.094,0.8784,0.0069,139.997,45.000,31241.28517,1.90674,388.657,35.502,45.067,45.000,0.00,0.10,-272.73,-272.79,-16,504,-945,25.7,20.7,1.5,25.5,21.2,1.7,5.73,2.01,5.0,29.5
2015-08-22 00:30:00,0.0,1.88998,0.00056,384.244,0.208,0.8928,0.0107,139.999,45.000,31240.39268,1.90706,388.487,35.500,45.068,45.000,0.00,0.10,-272.73,-272.79,-16,503,-945,25.7,21.0,1.7,25.5,21.6,2.0,5.73,1.98,4.9,29.5
2015-08-22 00:31:00,0.0,1.89033,0.00034,384.563,0.084,0.8674,0.0052,139.999,45.000,31242.18632,1.90691,388.686,35.500,45.067,45.000,0.00,0.10,-272.73,-272.81,-16,504,-945,25.7,20.4,1.3,25.5,21.1,1.6,5.73,1.94,5.0,29.5
2015-08-22 00:32:00,0.0,1.88988,0.00040,384.555,0.089,0.8706,0.0068,139.999,45.000,31244.05081,1.90654,388.694,35.500,45.068,45.000,0.00,0.10,-272.71,-272.79,-16,504,-945,25.7,20.5,1.4,25.5,21.1,1.6,5.73,1.91,5.0,29.5
2015-08-22 00:33:00,0.0,1.88977,0.00042,384.310,0.220,0.8855,0.0109,140.000,45.000,31244.35584,1.90672,388.526,35.500,45.068,45.000,0.00,0.10,-272.70,-272.78,-16,504,-945,25.7,20.9,1.7,25.5,21.3,1.8,5.73,1.88,4.9,29.5
2015-08-22 00:34:00,0.0,1.88983,0.00022,384.157,0.205,0.8876,0.0104,139.999,45.000,31244.39475,1.90679,388.372,35.509,45.067,45.000,0.00,0.10,-272.73,-272.80,-16,504,-945,25.7,20.8,1.6,25.5,21.5,1.9,5.73,1.87,4.9,29.5
2015-08-22 00:35:00,0.0,1.89004,0.00040,384.430,0.158,0.8734,0.0062,140.000,45.000,31246.18056,1.90673,388.586,35.550,45.067,45.000,0.00,0.10,-272.74,-272.80,-16,504,-945,25.7,20.6,1.4,25.5,21.2,1.7,5.73,1.89,5.0,29.5
2015-08-22 00:36:00,0.0,1.89024,0.00030,384.341,0.199,0.8771,0.0080,139.999,45.000,31245.14807,1.90703,388.504,35.555,45.067,45.000,0.00,0.10,-272.72,-272.81,-16,504,-945,25.7,20.6,1.5,25.5,21.2,1.7,5.73,1.91,4.9,29.5
2015-08-22 00:37:00,0.0,1.88992,0.00033,384.357,0.104,0.8823,0.0060,140.000,45.000,31245.92470,1.90680,388.551,35.561,45.067,45.000,0.00,0.10,-272.74,-272.80,-16,504,-945,25.7,20.8,1.5,25.5,21.4,1.8,5.73,1.95,5.0,29.5
2015-08-22 00:38:00,0.0,1.89016,0.00034,384.405,0.116,0.8808,0.0045,140.000,45.000,31244.49674,1.90700,388.595,35.564,45.067,45.000,0.00,0.10,-272.74,-272.80,-16,504,-945,25.7,20.7,1.5,25.5,21.3,1.8,5.73,1.99,5.0,29.5
2015-08-22 00:39:00,0.0,1.89021,0.00022,384.273,0.176,0.8874,0.0084,139.998,45.000,31244.19995,1.90719,388.489,35.565,45.067,45.000,0.00,0.10,-272.73,-272.79,-16,504,-945,25.7,20.9,1.6,25.5,21.4,1.9,5.73,2.01,5.0,29.4
2015-08-22 00:40:00,0.0,1.89038,0.00048,384.338,0.262,0.8861,0.0128,139.999,45.000,31244.30614,1.90733,388.550,35.563,45.067,45.000,0.00,0.10,-272.74,-272.79,-16,504,-945,25.7,20.8,1.6,25.5,21.5,1.9,5.73,2.01,5.0,29.5
2015-08-22 00:41:00,0.0,1.89008,0.00040,384.433,0.111,0.8791,0.0067,139.998,45.000,31244.40108,1.90692,388.616,35.563,45.067,45.000,0.00,0.10,-272.74,-272.80,-16,504,-945,25.7,20.7,1.5,25.5,21.3,1.8,5.73,2.00,5.0,29.4
2015-08-22 00:42:00,0.0,1.89041,0.00033,384.516,0.067,0.8700,0.0034,139.998,45.000,31244.21785,1.90700,388.651,35.559,45.067,45.000,0.00,0.10,-272.73,-272.80,-16,504,-945,25.7,20.4,1.4,25.5,21.1,1.6,5.73,1.97,5.0,29.5
2015-08-22 00:43:00,0.0,1.89037,0.00042,384.446,0.113,0.8767,0.0059,140.000,45.000,31245.90275,1.90715,388.612,35.563,45.067,45.000,0.00,0.10,-272.73,-272.79,-16,504,-945,25.7,20.6,1.4,25.5,21.2,1.7,5.73,1.94,5.0,29.5
2015-08-22 00:44:00,0.0,1.89015,0.00049,384.245,0.290,0.8863,0.0159,139.997,45.000,31245.42472,1.90709,388.464,35.563,45.067,45.000,0.00,0.10,-272.74,-272.80,-16,504,-945,25.7,20.9,1.6,25.5,21.3,1.8,5.73,1.90,5.0,29.5
2015-08-22 00:45:00,0.0,1.88955,0.00034,384.057,0.167,0.8980,0.0083,139.998,45.000,31245.23820,1.90676,388.328,35.562,45.067,45.000,0.00,0.10,-272.73,-272.79,-16,504,-945,25.7,21.1,1.8,25.5,21.7,2.1,5.73,1.88,5.0,29.5
2015-08-22 00:46:00,0.0,1.88995,0.00063,384.248,0.222,0.8945,0.0113,139.999,45.000,31246.92260,1.90703,388.493,35.560,45.068,45.000,0.00,0.10,-272.73,-272.79,-16,504,-945,25.7,21.0,1.7,25.5,21.7,2.0,5.73,1.88,5.0,29.5
2015-08-22 00:47:00,0.0,1.88970,0.00050,384.271,0.209,0.8936,0.0099,139.998,45.000,31246.28884,1.90683,388.526,35.563,45.068,45.000,0.00,0.10,-272.73,-272.79,-16,504,-945,25.7,21.0,1.7,25.5,21.5,1.9,5.73,1.89,5.0,29.5
2015-08-22 00:48:00,0.0,1.88985,0.00034,384.095,0.127,0.9001,0.0067,140.000,45.000,31247.95022,1.90707,388.375,35.563,45.067,45.000,0.00,0.10,-272.73,-272.79,-16,504,-945,25.7,21.2,1.8,25.5,21.8,2.1,5.73,1.93,5.0,29.5
2015-08-22 00:49:00,0.0,1.88991,0.00044,384.301,0.171,0.8941,0.0103,140.001,45.000,31247.76897,1.90699,388.548,35.572,45.068,45.000,0.00,0.10,-272.73,-272.79,-16,504,-945,25.7,21.0,1.7,25.5,21.7,2.0,5.73,1.96,5.0,29.4
2015-08-22 00:50:00,0.0,1.89015,0.00045,384.146,0.156,0.8983,0.0067,140.000,45.000,31245.70142,1.90735,388.424,35.584,45.067,45.000,0.00,0.10,-272.73,-272.80,-16,504,-945,25.7,21.1,1.8,25.5,21.6,2.0,5.73,1.99,5.0,29.4
2015-08-22 00:51:00,0.0,1.89040,0.00040,384.215,0.128,0.8968,0.0076,140.000,45.000,31247.66497,1.90755,388.474,35.572,45.067,45.000,0.00,0.10,-272.73,-272.80,-16,504,-945,25.7,21.0,1.8,25.5,21.7,2.1,5.73,2.02,5.0,29.5
2015-08-22 00:52:00,0.0,1.89013,0.00050,384.152,0.252,0.8993,0.0148,139.998,45.000,31247.01669,1.90737,388.424,35.564,45.067,45.000,0.00,0.10,-272.73,-272.79,-16,504,-945,25.7,21.1,1.8,25.5,21.6,2.0,5.73,2.01,5.0,29.5
2015-08-22 00:53:00,0.0,1.89005,0.00034,384.026,0.180,0.9094,0.0123,140.001,45.000,31248.35030,1.90743,388.356,35.564,45.067,45.000,0.00,0.10,-272.73,-272.79,-16,504,-945,25.7,21.4,2.0,25.5,21.9,2.2,5.73,1.99,5.0,29.6
2015-08-22 00:54:00,0.0,1.89032,0.00051,384.166,0.233,0.9009,0.0135,140.000,45.000,31247.98037,1.90760,388.450,35.572,45.067,45.000,0.00,0.10,-272.73,-272.80,-16,504,-945,25.7,21.1,1.8,25.5,21.9,2.2,5.73,1.96,5.0,29.5
2015-08-22 00:55:00,0.0,1.89074,0.00035,384.433,0.169,0.8806,0.0079,140.000,45.000,31248.61628,1.90757,388.619,35.569,45.068,45.000,0.00,0.10,-272.73,-272.80,-16,504,-945,25.7,20.6,1.5,25.5,21.4,1.8,5.73,1.91,5.0,29.5
2015-08-22 00:56:00,0.0,1.89053,0.00038,384.256,0.215,0.8897,0.0072,139.998,45.000,31248.97678,1.90755,388.488,35.604,45.068,45.000,0.00,0.10,-272.72,-272.79,-16,504,-945,25.7,20.8,1.6,25.5,21.4,1.9,5.73,1.89,5.0,29.5
2015-08-22 00:57:00,0.0,1.89071,0.00038,384.323,0.080,0.8875,0.0035,139.999,45.000,31246.66432,1.90770,388.539,35.623,45.067,45.000,0.00,0.10,-272.73,-272.80,-16,504,-945,25.7,20.8,1.6,25.5,21.4,1.9,5.73,1.88,5.0,29.5
2015-08-22 00:58:00,0.0,1.89081,0.00028,384.353,0.081,0.8866,0.0035,140.001,45.000,31247.80645,1.90778,388.572,35.625,45.067,45.000,0.00,0.10,-272.74,-272.79,-16,504,-945,25.7,20.8,1.6,25.6,21.4,1.9,5.73,1.88,5.0,29.4
2015-08-22 00:59:00,0.0,1.89015,0.00038,384.093,0.152,0.9058,0.0054,139.996,45.000,31247.33281,1.90752,388.398,35.625,45.067,45.000,0.00,0.10,-272.73,-272.79,-16,504,-945,25.7,21.3,1.9,25.5,21.8,2.1,5.73,1.90,5.0,29.4
2015-08-22 01:00:00,0.0,1.89015,0.00062,384.190,0.126,0.9008,0.0074,139.999,45.000,31247.89397,1.90738,388.476,35.625,45.067,45.000,0.00,0.10,-272.73,-272.79,-16,504,-945,25.7,21.1,1.8,25.5,21.8,2.1,5.73,1.94,5.0,29.5
2015-08-22 01:01:00,0.0,1.89039,0.00037,384.261,0.130,0.8963,0.0075,140.002,45.000,31249.39637,1.90753,388.522,35.625,45.067,45.000,0.00,0.10,-272.74,-272.80,-16,504,-945,25.7,21.0,1.8,25.5,21.7,2.0,5.73,1.99,5.0,29.5
2015-08-22 01:02:00,0.0,1.89032,0.00038,384.260,0.102,0.8948,0.0060,139.999,45.000,31249.72326,1.90745,388.513,35.625,45.067,45.000,0.00,0.10,-272.73,-272.79,-16,504,-945,25.7,20.9,1.7,25.5,21.6,2.0,5.73,2.01,5.0,29.6
2015-08-22 01:03:00,0.0,1.89031,0.00034,384.256,0.147,0.8927,0.0082,139.998,45.000,31250.27084,1.90738,388.502,35.624,45.067,45.000,0.00,0.10,-272.72,-272.79,-16,504,-945,25.7,21.0,1.7,25.5,21.5,1.9,5.73,2.02,5.0,29.5
2015-08-22 01:04:00,0.0,1.89032,0.00041,384.105,0.172,0.9026,0.0091,140.001,45.000,31249.43322,1.90762,388.394,35.610,45.067,45.000,0.00,0.10,-272.73,-272.80,-16,504,-945,25.7,21.2,1.9,25.5,21.7,2.1,5.73,2.00,5.0,29.4
2015-08-22 01:05:00,0.0,1.89030,0.00042,384.264,0.152,0.8911,0.0074,139.998,45.000,31248.89308,1.90733,388.501,35.600,45.068,45.000,0.00,0.10,-272.73,-272.80,-16,504,-945,25.7,20.9,1.7,25.6,21.6,2.0,5.73,1.97,5.0,29.5
2015-08-22 01:06:00,0.0,1.89024,0.00054,384.124,0.118,0.8947,0.0055,140.001,45.000,31251.38260,1.90737,388.381,35.618,45.068,45.000,0.00,0.10,-272.72,-272.79,-16,504,-945,25.7,21.0,1.8,25.5,21.6,2.0,5.73,1.93,5.0,29.5
2015-08-22 01:07:00,0.0,1.88998,0.00043,383.960,0.196,0.9073,0.0115,140.001,45.000,31252.49368,1.90735,388.271,35.618,45.068,45.000,0.00,0.10,-272.73,-272.80,-16,504,-945,25.7,21.3,1.9,25.6,21.8,2.2,5.73,1.89,5.0,29.5
2015-08-22 01:08:00,0.0,1.89025,0.00043,384.049,0.138,0.9016,0.0056,140.000,45.000,31251.50322,1.90749,388.335,35.621,45.067,45.000,0.00,0.10,-272.74,-272.80,-16,504,-945,25.7,21.1,1.8,25.6,21.7,2.1,5.73,1.87,5.0,29.5
2015-08-22 01:09:00,0.0,1.89062,0.00034,384.218,0.119,0.8913,0.0087,139.998,45.000,31250.29623,1.90771,388.457,35.620,45.067,45.000,0.00,0.10,-272.73,-272.79,-16,504,-945,25.7,20.8,1.7,25.6,21.6,2.0,5.73,1.88,5.0,29.5
2015-08-22 01:10:00,0.0,1.89078,0.00042,384.256,0.147,0.8907,0.0047,140.000,45.000,31248.93092,1.90778,388.489,35.603,45.068,45.000,0.00,0.10,-272.73,-272.79,-16,504,-945,25.7,20.9,1.7,25.6,21.4,1.9,5.73,1.90,5.0,29.5
2015-08-22 01:11:00,0.0,1.89063,0.00040,383.904,0.216,0.9079,0.0084,140.000,45.000,31248.63139,1.90801,388.218,35.588,45.068,45.000,0.00,0.10,-272.74,-272.80,-16,504,-945,25.7,21.3,1.9,25.6,21.8,2.2,5.73,1.94,5.0,29.5
2015-08-22 01:12:00,0.0,1.89064,0.00048,384.108,0.213,0.9002,0.0136,140.000,45.000,31248.58594,1.90788,388.389,35.583,45.068,45.000,0.00,0.10,-272.74,-272.79,-16,504,-945,25.7,21.1,1.8,25.5,21.7,2.0,5.73,1.98,5.0,29.5
2015-08-22 01:13:00,0.0,1.89036,0.00043,384.182,0.108,0.8950,0.0076,140.001,45.000,31250.67272,1.90752,388.437,35.598,45.068,45.000,0.00,0.10,-272.73,-272.79,-16,504,-945,25.7,21.0,1.7,25.6,21.6,2.0,5.73,2.01,5.0,29.5
2015-08-22 01:14:00,0.0,1.88992,0.00029,384.034,0.221,0.9072,0.0115,139.996,45.000,31250.11198,1.90729,388.347,35.625,45.068,45.000,0.00,0.10,-272.73,-272.80,-16,504,-945,25.7,21.3,1.9,25.6,21.9,2.2,5.73,2.02,5.0,29.6
2015-08-22 01:15:00,0.0,1.89040,0.00039,384.264,0.131,0.9014,0.0070,139.998,45.000,31248.39750,1.90765,388.551,35.624,45.067,45.000,0.00,0.10,-272.73,-272.79,-16,504,-945,25.8,21.2,1.9,25.6,21.7,2.1,5.73,2.00,5.0,29.5
2015-08-22 01:16:00,0.0,1.89048,0.00046,384.119,0.171,0.8996,0.0090,139.999,45.000,31249.76734,1.90772,388.397,35.624,45.067,45.000,0.00,0.10,-272.73,-272.79,-16,504,-945,25.7,21.1,1.8,25.6,21.8,2.1,5.73,1.96,5.0,29.6
2015-08-22 01:17:00,0.0,1.88998,0.00040,384.026,0.175,0.9033,0.0088,139.998,45.000,31251.27506,1.90725,388.322,35.616,45.067,45.000,0.00,0.10,-272.73,-272.79,-16,504,-945,25.8,21.2,1.9,25.6,21.7,2.1,5.73,1.93,5.0,29.5
2015-08-22 01:18:00,0.0,1.89041,0.00045,384.182,0.156,0.8967,0.0101,139.999,45.000,31252.07807,1.90756,388.443,35.621,45.067,45.000,0.00,0.10,-272.73,-272.81,-16,504,-945,25.7,21.0,1.8,25.6,21.7,2.1,5.73,1.90,5.0,29.5
2015-08-22 01:19:00,0.0,1.89039,0.00044,384.075,0.135,0.9036,0.0060,139.999,45.000,31252.85039,1.90772,388.372,35.623,45.067,45.000,0.00,0.10,-272.73,-272.79,-16,504,-945,25.8,21.2,1.9,25.6,21.7,2.1,5.73,1.88,5.0,29.5
2015-08-22 01:20:00,0.0,1.89058,0.00035,384.211,0.142,0.8949,0.0084,140.000,45.000,31252.50371,1.90768,388.463,35.617,45.067,45.000,0.00,0.10,-272.73,-272.79,-16,504,-945,25.8,20.9,1.7,25.6,21.6,2.0,5.73,1.87,5.0,29.4
2015-08-22 01:21:00,0.0,1.89058,0.00041,384.273,0.097,0.8946,0.0072,139.996,45.000,31250.38749,1.90772,388.526,35.622,45.067,45.000,0.00,0.10,-272.73,-272.80,-16,504,-945,25.8,21.0,1.8,25.6,21.5,2.0,5.73,1.89,5.0,29.5
2015-08-22 01:22:00,0.0,1.89077,0.00037,384.266,0.113,0.8982,0.0074,139.998,45.000,31250.38745,1.90794,388.537,35.625,45.067,45.000,0.00,0.10,-272.74,-272.80,-16,504,-945,25.7,21.0,1.8,25.6,21.7,2.1,5.73,1.93,5.0,29.5
2015-08-22 01:23:00,0.0,1.89073,0.00047,384.350,0.179,0.8899,0.0098,140.001,45.000,31250.78954,1.90780,388.588,35.629,45.067,45.000,0.00,0.10,-272.73,-272.79,-16,504,-945,25.8,20.9,1.7,25.6,21.4,1.9,5.73,1.98,5.0,29.6
2015-08-22 01:24:00,0.0,1.89057,0.00044,384.179,0.153,0.9060,0.0067,139.999,45.000,31249.99885,1.90789,388.486,35.626,45.067,45.000,0.00,0.10,-272.73,-272.79,-16,504,-945,25.7,21.2,1.9,25.6,21.8,2.2,5.73,2.01,5.0,29.6
2015-08-22 01:25:00,0.0,1.89067,0.00030,384.022,0.192,0.9152,0.0070,140.001,45.000,31250.22547,1.90821,388.373,35.626,45.067,45.000,0.00,0.10,-272.74,-272.80,-16,504,-945,25.8,21.4,2.1,25.6,22.0,2.3,5.73,2.02,5.0,29.6
2015-08-22 01:26:00,0.0,1.89029,0.00048,384.093,0.220,0.9162,0.0081,140.001,45.000,31251.68257,1.90784,388.447,35.625,45.067,45.000,0.00,0.10,-272.73,-272.79,-16,504,-945,25.7,21.4,2.0,25.6,22.0,2.3,5.73,2.01,5.0,29.6
2015-08-22 01:27:00,0.0,1.89048,0.00029,384.139,0.142,0.9123,0.0086,139.998,45.000,31250.88519,1.90796,388.479,35.624,45.067,45.000,0.00,0.10,-272.73,-272.79,-16,504,-945,25.7,21.4,2.0,25.6,22.0,2.3,5.73,1.98,5.0,29.6
2015-08-22 01:28:00,0.0,1.89023,0.00033,384.081,0.158,0.9124,0.0081,139.997,45.000,31251.83288,1.90772,388.423,35.613,45.068,45.000,0.00,0.10,-272.73,-272.80,-16,504,-945,25.8,21.4,2.0,25.6,22.0,2.3,5.73,1.94,5.0,29.6
2015-08-22 01:29:00,0.0,1.89029,0.00038,384.256,0.092,0.9099,0.0067,140.000,45.000,31252.27241,1.90769,388.581,35.616,45.067,45.000,0.00,0.10,-272.73,-272.80,-16,504,-945,25.8,21.3,2.0,25.6,21.9,2.3,5.73,1.90,5.0,29.5
2015-08-22 01:30:00,0.0,1.89010,0.00040,384.067,0.114,0.9162,0.0057,139.997,45.000,31250.95687,1.90765,388.426,35.615,45.068,45.000,0.00,0.10,-272.72,-272.79,-16,504,-945,25.8,21.5,2.1,25.6,22.0,2.3,5.73,1.88,5.0,29.6
2015-08-22 01:31:00,0.0,1.89013,0.00036,384.067,0.147,0.9236,0.0079,139.998,45.000,31250.92124,1.90781,388.459,35.621,45.068,45.000,0.00,0.10,-272.73,-272.80,-16,504,-945,25.8,21.6,2.2,25.6,22.2,2.4,5.73,1.87,5.0,29.5
2015-08-22 01:32:00,0.0,1.89055,0.00032,384.231,0.127,0.9101,0.0064,139.999,45.000,31251.51962,1.90800,388.562,35.621,45.067,45.000,0.00,0.10,-272.73,-272.80,-16,504,-945,25.8,21.3,2.0,25.6,21.9,2.2,5.73,1.89,5.0,29.6
2015-08-22 01:33:00,0.0,1.89048,0.00038,384.213,0.098,0.9098,0.0054,140.000,45.000,31253.28131,1.90789,388.539,35.606,45.067,45.000,0.00,0.10,-272.73,-272.79,-16,504,-945,25.8,21.3,2.0,25.6,21.9,2.2,5.73,1.92,5.0,29.6
2015-08-22 01:34:00,0.0,1.89045,0.00030,384.138,0.188,0.9178,0.0057,139.997,45.000,31251.64963,1.90805,388.507,35.585,45.068,45.000,0.00,0.10,-272.73,-272.79,-16,504,-945,25.8,21.5,2.1,25.6,22.0,2.3,5.73,1.97,5.0,29.6
2015-08-22 01:35:00,0.0,1.89015,0.00036,384.008,0.217,0.9205,0.0074,139.997,45.000,31253.60859,1.90779,388.387,35.576,45.068,45.000,0.00,0.10,-272.73,-272.80,-16,504,-945,25.8,21.5,2.2,25.6,22.2,2.4,5.73,2.00,5.0,29.6
2015-08-22 01:36:00,0.0,1.89015,0.00033,384.161,0.146,0.9161,0.0077,139.999,45.000,31254.26398,1.90768,388.515,35.590,45.068,45.000,0.00,0.10,-272.73,-272.80,-16,504,-945,25.8,21.4,2.0,25.6,22.1,2.4,5.73,2.02,5.0,29.6
2015-08-22 01:37:00,0.0,1.89076,0.00028,384.376,0.088,0.9030,0.0083,140.000,45.000,31253.03820,1.90805,388.675,35.579,45.068,45.000,0.00,0.10,-272.73,-272.79,-16,504,-945,25.8,21.1,1.9,25.6,21.7,2.1,5.73,2.01,5.0,29.6
2015-08-22 01:38:00,0.0,1.89051,0.00033,384.198,0.141,0.9147,0.0079,139.999,45.000,31253.20864,1.90802,388.548,35.567,45.068,45.000,0.00,0.10,-272.74,-272.79,-16,504,-945,25.8,21.4,2.0,25.6,22.0,2.3,5.73,1.98,5.0,29.5
2015-08-22 01:39:00,0.0,1.89098,0.00035,384.394,0.114,0.8992,0.0093,139.997,45.000,31250.25109,1.90820,388.675,35.564,45.068,45.000,0.00,0.10,-272.73,-272.80,-16,504,-945,25.8,21.0,1.8,25.6,21.7,2.1,5.73,1.95,5.0,29.5
2015-08-22 01:40:00,0.0,1.89073,0.00055,384.199,0.132,0.9036,0.0059,139.999,45.000,31252.45749,1.90804,388.501,35.562,45.068,45.000,0.00,0.10,-272.73,-272.79,-16,504,-946,25.8,21.1,1.9,25.6,21.7,2.1,5.73,1.91,5.0,29.5
2015-08-22 01:41:00,0.0,1.89061,0.00048,384.153,0.146,0.9110,0.0063,140.000,45.000,31253.29825,1.90805,388.483,35.565,45.068,45.000,0.00,0.10,-272.73,-272.80,-16,504,-946,25.8,21.3,2.0,25.6,21.9,2.2,5.73,1.88,5.0,29.6
2015-08-22 01:42:00,0.0,1.89078,0.00029,384.426,0.084,0.8987,0.0043,139.998,45.000,31252.34131,1.90801,388.696,35.574,45.068,45.000,0.00,0.10,-272.73,-272.80,-16,504,-946,25.8,21.0,1.8,25.6,21.7,2.1,5.73,1.87,5.0,29.6
2015-08-22 01:43:00,0.0,1.89027,0.00035,384.180,0.127,0.9146,0.0054,139.998,45.000,31252.09201,1.90778,388.537,35.607,45.067,45.000,0.00,0.10,-272.73,-272.80,-16,504,-946,25.8,21.4,2.1,25.6,21.9,2.2,5.73,1.89,5.0,29.6
2015-08-22 01:44:00,0.0,1.89031,0.00044,384.189,0.164,0.9122,0.0083,139.999,45.000,31253.76744,1.90779,388.526,35.619,45.067,45.000,0.00,0.10,-272.73,-272.80,-16,504,-946,25.8,21.3,2.0,25.6,21.9,2.3,5.73,1.92,5.0,29.6
2015-08-22 01:45:00,0.0,1.89037,0.00034,384.054,0.118,0.9155,0.0047,139.999,45.000,31254.78981,1.90789,388.411,35.625,45.067,45.000,0.00,0.10,-272.73,-272.80,-16,504,-946,25.8,21.4,2.1,25.6,22.0,2.3,5.73,1.96,5.0,29.7
2015-08-22 01:46:00,0.0,1.89032,0.00037,384.165,0.108,0.9096,0.0076,139.997,45.000,31255.78396,1.90775,388.490,35.625,45.067,45.000,0.00,0.10,-272.73,-272.79,-16,504,-946,25.8,21.2,2.0,25.6,21.9,2.2,5.73,2.00,5.0,29.5